contact:dominique.lefevre@mio.osupytheas.fr, maurice.libes@osupytheas.fr, didier.mallarino@osupytheas.fr
Project:EMSO http://www.emso-fr.org/EMSO-France
Depth: 2436.0 m
Title:EMSO Ligure Ouest : Data MII capteur MICROCAT
DateTime_Computer,Latitude,Longitude,Temperature,Conductivity,Pressure,DateTime_Instrument
DateTime_Computer,Latitude,Longitude,degC,S m-1,dbar,DateTime_Instrument
2022-10-19T00:01:08Z,42.805,6.029,13.3006,4.60053,2470.637,2022-10-19T02:03:03Z
2022-10-19T00:04:11Z,42.805,6.029,13.3011,4.60053,2470.624,2022-10-19T02:06:06Z
2022-10-19T00:07:14Z,42.805,6.029,13.3011,4.60055,2470.637,2022-10-19T02:09:09Z
2022-10-19T00:10:17Z,42.805,6.029,13.3008,4.60054,2470.646,2022-10-19T02:12:12Z
2022-10-19T00:13:20Z,42.805,6.029,13.3008,4.60054,2470.624,2022-10-19T02:15:15Z
2022-10-19T00:16:23Z,42.805,6.029,13.3009,4.60052,2470.661,2022-10-19T02:18:18Z
2022-10-19T00:19:26Z,42.805,6.029,13.3015,4.60052,2470.624,2022-10-19T02:21:22Z
2022-10-19T00:22:29Z,42.805,6.029,13.3011,4.60052,2470.637,2022-10-19T02:24:25Z
2022-10-19T00:25:32Z,42.805,6.029,13.3010,4.60056,2470.624,2022-10-19T02:27:28Z
2022-10-19T00:28:35Z,42.805,6.029,13.3010,4.60056,2470.624,2022-10-19T02:30:31Z
2022-10-19T00:31:38Z,42.805,6.029,13.3009,4.60055,2470.624,2022-10-19T02:33:34Z
2022-10-19T00:34:41Z,42.805,6.029,13.3009,4.60052,2470.646,2022-10-19T02:36:37Z
2022-10-19T00:37:45Z,42.805,6.029,13.3009,4.60054,2470.661,2022-10-19T02:39:40Z
2022-10-19T00:40:48Z,42.805,6.029,13.3010,4.60055,2470.646,2022-10-19T02:42:43Z
2022-10-19T00:43:51Z,42.805,6.029,13.3011,4.60054,2470.637,2022-10-19T02:45:46Z
2022-10-19T00:46:54Z,42.805,6.029,13.3012,4.60053,2470.646,2022-10-19T02:48:49Z
2022-10-19T00:49:57Z,42.805,6.029,13.3011,4.60057,2470.624,2022-10-19T02:51:52Z
2022-10-19T00:53:00Z,42.805,6.029,13.3013,4.60055,2470.646,2022-10-19T02:54:55Z
2022-10-19T00:56:03Z,42.805,6.029,13.3008,4.60055,2470.614,2022-10-19T02:57:59Z
2022-10-19T00:59:06Z,42.805,6.029,13.3011,4.60056,2470.661,2022-10-19T03:01:02Z
2022-10-19T01:02:09Z,42.805,6.029,13.3008,4.60055,2470.624,2022-10-19T03:04:05Z
2022-10-19T01:05:12Z,42.805,6.029,13.3012,4.60053,2470.624,2022-10-19T03:07:08Z
2022-10-19T01:08:15Z,42.805,6.029,13.3012,4.60052,2470.661,2022-10-19T03:10:11Z
2022-10-19T01:11:18Z,42.805,6.029,13.3006,4.60053,2470.637,2022-10-19T03:13:14Z
2022-10-19T01:14:21Z,42.805,6.029,13.3009,4.60055,2470.637,2022-10-19T03:16:17Z
2022-10-19T01:17:25Z,42.805,6.029,13.3007,4.60054,2470.624,2022-10-19T03:19:20Z
2022-10-19T01:20:28Z,42.805,6.029,13.3009,4.60057,2470.661,2022-10-19T03:22:23Z
2022-10-19T01:23:31Z,42.805,6.029,13.3015,4.60055,2470.6,2022-10-19T03:25:26Z
2022-10-19T01:26:34Z,42.805,6.029,13.3009,4.60056,2470.674,2022-10-19T03:28:29Z
2022-10-19T01:29:37Z,42.805,6.029,13.3014,4.60063,2470.637,2022-10-19T03:31:32Z
2022-10-19T01:32:40Z,42.805,6.029,13.3013,4.60059,2470.624,2022-10-19T03:34:35Z
2022-10-19T01:35:43Z,42.805,6.029,13.3009,4.60056,2470.624,2022-10-19T03:37:39Z
2022-10-19T01:38:46Z,42.805,6.029,13.3007,4.60052,2470.661,2022-10-19T03:40:42Z
2022-10-19T01:41:49Z,42.805,6.029,13.3010,4.60053,2470.661,2022-10-19T03:43:45Z
2022-10-19T01:44:52Z,42.805,6.029,13.3011,4.60054,2470.67,2022-10-19T03:46:48Z
2022-10-19T01:47:55Z,42.805,6.029,13.3007,4.60052,2470.646,2022-10-19T03:49:51Z
2022-10-19T01:50:58Z,42.805,6.029,13.3011,4.60057,2470.684,2022-10-19T03:52:54Z
2022-10-19T01:54:01Z,42.805,6.029,13.3009,4.60056,2470.646,2022-10-19T03:55:57Z
2022-10-19T01:57:05Z,42.805,6.029,13.3013,4.60055,2470.646,2022-10-19T03:59:00Z
2022-10-19T02:00:08Z,42.805,6.029,13.3010,4.60054,2470.646,2022-10-19T04:02:03Z
2022-10-19T02:03:11Z,42.805,6.029,13.3011,4.60056,2470.6,2022-10-19T04:05:06Z
2022-10-19T02:06:14Z,42.805,6.029,13.3010,4.60056,2470.637,2022-10-19T04:08:09Z
2022-10-19T02:09:17Z,42.805,6.029,13.3015,4.60057,2470.646,2022-10-19T04:11:12Z
2022-10-19T02:12:20Z,42.805,6.029,13.3011,4.60055,2470.646,2022-10-19T04:14:15Z
2022-10-19T02:15:23Z,42.805,6.029,13.3008,4.60054,2470.646,2022-10-19T04:17:19Z
2022-10-19T02:18:26Z,42.805,6.029,13.3012,4.60056,2470.661,2022-10-19T04:20:22Z
2022-10-19T02:21:29Z,42.805,6.029,13.3008,4.60058,2470.624,2022-10-19T04:23:25Z
2022-10-19T02:24:32Z,42.805,6.029,13.3011,4.60054,2470.624,2022-10-19T04:26:28Z
2022-10-19T02:27:35Z,42.805,6.029,13.3007,4.60059,2470.67,2022-10-19T04:29:31Z
2022-10-19T02:30:38Z,42.805,6.029,13.3006,4.60055,2470.661,2022-10-19T04:32:34Z
2022-10-19T02:33:42Z,42.805,6.029,13.3006,4.60052,2470.646,2022-10-19T04:35:37Z
2022-10-19T02:36:45Z,42.805,6.029,13.3010,4.60051,2470.67,2022-10-19T04:38:40Z
2022-10-19T02:39:48Z,42.805,6.029,13.3009,4.60056,2470.624,2022-10-19T04:41:43Z
2022-10-19T02:42:51Z,42.805,6.029,13.3008,4.60057,2470.646,2022-10-19T04:44:46Z
2022-10-19T02:45:54Z,42.805,6.029,13.3009,4.60056,2470.67,2022-10-19T04:47:49Z
2022-10-19T02:48:57Z,42.805,6.029,13.3008,4.60059,2470.646,2022-10-19T04:50:52Z
2022-10-19T02:52:00Z,42.805,6.029,13.3008,4.60056,2470.646,2022-10-19T04:53:56Z
2022-10-19T02:55:03Z,42.805,6.029,13.3007,4.60050,2470.661,2022-10-19T04:56:59Z
2022-10-19T02:58:06Z,42.805,6.029,13.3008,4.60051,2470.646,2022-10-19T05:00:02Z
2022-10-19T03:01:09Z,42.805,6.029,13.3007,4.60052,2470.637,2022-10-19T05:03:05Z
2022-10-19T03:04:12Z,42.805,6.029,13.3012,4.60052,2470.646,2022-10-19T05:06:08Z
2022-10-19T03:07:15Z,42.805,6.029,13.3006,4.60051,2470.661,2022-10-19T05:09:11Z
2022-10-19T03:10:18Z,42.805,6.029,13.3009,4.60054,2470.637,2022-10-19T05:12:14Z
2022-10-19T03:13:22Z,42.805,6.029,13.3022,4.60053,2470.624,2022-10-19T05:15:17Z
2022-10-19T03:16:25Z,42.805,6.029,13.3024,4.60062,2470.624,2022-10-19T05:18:20Z
2022-10-19T03:19:28Z,42.805,6.029,13.3006,4.60053,2470.646,2022-10-19T05:21:23Z
2022-10-19T03:22:31Z,42.805,6.029,13.3006,4.60050,2470.624,2022-10-19T05:24:26Z
2022-10-19T03:25:34Z,42.805,6.029,13.3006,4.60053,2470.661,2022-10-19T05:27:29Z
2022-10-19T03:28:37Z,42.805,6.029,13.3011,4.60053,2470.624,2022-10-19T05:30:32Z
2022-10-19T03:31:40Z,42.805,6.029,13.3011,4.60063,2470.67,2022-10-19T05:33:36Z
2022-10-19T03:34:43Z,42.805,6.029,13.3029,4.60075,2470.646,2022-10-19T05:36:39Z
2022-10-19T03:37:46Z,42.805,6.029,13.3032,4.60084,2470.6,2022-10-19T05:39:42Z
2022-10-19T03:40:49Z,42.805,6.029,13.3006,4.60070,2470.637,2022-10-19T05:42:45Z
2022-10-19T03:43:52Z,42.805,6.029,13.3011,4.60076,2470.661,2022-10-19T05:45:48Z
2022-10-19T03:46:55Z,42.805,6.029,13.3006,4.60057,2470.646,2022-10-19T05:48:51Z
2022-10-19T03:49:58Z,42.805,6.029,13.3006,4.60059,2470.661,2022-10-19T05:51:54Z
2022-10-19T03:53:02Z,42.805,6.029,13.3006,4.60062,2470.624,2022-10-19T05:54:57Z
2022-10-19T03:56:05Z,42.805,6.029,13.3004,4.60054,2470.67,2022-10-19T05:58:00Z
2022-10-19T03:59:08Z,42.805,6.029,13.3013,4.60052,2470.624,2022-10-19T06:01:03Z
2022-10-19T04:02:11Z,42.805,6.029,13.3009,4.60051,2470.624,2022-10-19T06:04:06Z
2022-10-19T04:05:14Z,42.805,6.029,13.3008,4.60053,2470.661,2022-10-19T06:07:09Z
2022-10-19T04:08:17Z,42.805,6.029,13.3006,4.60052,2470.646,2022-10-19T06:10:12Z
2022-10-19T04:11:20Z,42.805,6.029,13.3009,4.60050,2470.637,2022-10-19T06:13:16Z
2022-10-19T04:14:23Z,42.805,6.029,13.3011,4.60051,2470.646,2022-10-19T06:16:19Z
2022-10-19T04:17:26Z,42.805,6.029,13.3010,4.60055,2470.646,2022-10-19T06:19:22Z
2022-10-19T04:20:29Z,42.805,6.029,13.3009,4.60057,2470.624,2022-10-19T06:22:25Z
2022-10-19T04:23:32Z,42.805,6.029,13.3004,4.60055,2470.624,2022-10-19T06:25:28Z
2022-10-19T04:26:35Z,42.805,6.029,13.3006,4.60059,2470.67,2022-10-19T06:28:31Z
2022-10-19T04:29:38Z,42.805,6.029,13.3007,4.60052,2470.646,2022-10-19T06:31:34Z
2022-10-19T04:32:42Z,42.805,6.029,13.3009,4.60052,2470.661,2022-10-19T06:34:37Z
2022-10-19T04:35:45Z,42.805,6.029,13.3006,4.60054,2470.624,2022-10-19T06:37:40Z
2022-10-19T04:38:48Z,42.805,6.029,13.3005,4.60063,2470.624,2022-10-19T06:40:43Z
2022-10-19T04:41:51Z,42.805,6.029,13.3009,4.60054,2470.624,2022-10-19T06:43:46Z
2022-10-19T04:44:54Z,42.805,6.029,13.3006,4.60057,2470.637,2022-10-19T06:46:49Z
2022-10-19T04:47:57Z,42.805,6.029,13.3011,4.60062,2470.624,2022-10-19T06:49:52Z
2022-10-19T04:51:00Z,42.805,6.029,13.3011,4.60051,2470.624,2022-10-19T06:52:56Z
2022-10-19T04:54:03Z,42.805,6.029,13.3009,4.60051,2470.624,2022-10-19T06:55:59Z
2022-10-19T04:57:06Z,42.805,6.029,13.3005,4.60051,2470.637,2022-10-19T06:59:02Z
2022-10-19T05:00:09Z,42.805,6.029,13.3011,4.60051,2470.661,2022-10-19T07:02:05Z
2022-10-19T05:03:12Z,42.805,6.029,13.3006,4.60052,2470.661,2022-10-19T07:05:08Z
2022-10-19T05:06:15Z,42.805,6.029,13.3013,4.60055,2470.637,2022-10-19T07:08:11Z
2022-10-19T05:09:18Z,42.805,6.029,13.3011,4.60052,2470.646,2022-10-19T07:11:14Z
2022-10-19T05:12:22Z,42.805,6.029,13.3007,4.60054,2470.614,2022-10-19T07:14:17Z
2022-10-19T05:15:25Z,42.805,6.029,13.3007,4.60051,2470.624,2022-10-19T07:17:20Z
2022-10-19T05:18:28Z,42.805,6.029,13.3011,4.60052,2470.637,2022-10-19T07:20:23Z
2022-10-19T05:21:31Z,42.805,6.029,13.3011,4.60052,2470.624,2022-10-19T07:23:26Z
2022-10-19T05:24:34Z,42.805,6.029,13.3011,4.60052,2470.661,2022-10-19T07:26:29Z
2022-10-19T05:27:37Z,42.805,6.029,13.3010,4.60053,2470.624,2022-10-19T07:29:33Z
2022-10-19T05:30:40Z,42.805,6.029,13.3010,4.60062,2470.6,2022-10-19T07:32:36Z
2022-10-19T05:33:43Z,42.805,6.029,13.3006,4.60054,2470.624,2022-10-19T07:35:39Z
2022-10-19T05:36:46Z,42.805,6.029,13.3010,4.60051,2470.661,2022-10-19T07:38:42Z
2022-10-19T05:39:49Z,42.805,6.029,13.3006,4.60052,2470.637,2022-10-19T07:41:45Z
2022-10-19T05:42:52Z,42.805,6.029,13.3011,4.60051,2470.624,2022-10-19T07:44:48Z
2022-10-19T05:45:55Z,42.805,6.029,13.3009,4.60051,2470.614,2022-10-19T07:47:51Z
2022-10-19T05:48:59Z,42.805,6.029,13.3007,4.60053,2470.614,2022-10-19T07:50:54Z
2022-10-19T05:52:02Z,42.805,6.029,13.3009,4.60050,2470.6,2022-10-19T07:53:57Z
2022-10-19T05:55:05Z,42.805,6.029,13.3014,4.60050,2470.614,2022-10-19T07:57:00Z
2022-10-19T05:58:08Z,42.805,6.029,13.3012,4.60052,2470.684,2022-10-19T08:00:03Z
2022-10-19T06:01:11Z,42.805,6.029,13.3006,4.60049,2470.637,2022-10-19T08:03:06Z
2022-10-19T06:04:14Z,42.805,6.029,13.3009,4.60049,2470.637,2022-10-19T08:06:09Z
2022-10-19T06:07:17Z,42.805,6.029,13.3007,4.60051,2470.624,2022-10-19T08:09:13Z
2022-10-19T06:10:20Z,42.805,6.029,13.3007,4.60052,2470.61,2022-10-19T08:12:16Z
2022-10-19T06:13:23Z,42.805,6.029,13.3008,4.60050,2470.6,2022-10-19T08:15:19Z
2022-10-19T06:16:26Z,42.805,6.029,13.3008,4.60052,2470.577,2022-10-19T08:18:22Z
2022-10-19T06:19:29Z,42.805,6.029,13.3009,4.60051,2470.614,2022-10-19T08:21:25Z
2022-10-19T06:22:32Z,42.805,6.029,13.3011,4.60052,2470.6,2022-10-19T08:24:28Z
2022-10-19T06:25:35Z,42.805,6.029,13.3009,4.60052,2470.586,2022-10-19T08:27:31Z
2022-10-19T06:28:39Z,42.805,6.029,13.3005,4.60065,2470.624,2022-10-19T08:30:34Z
2022-10-19T06:31:42Z,42.805,6.029,13.3011,4.60054,2470.614,2022-10-19T08:33:37Z
2022-10-19T06:34:45Z,42.805,6.029,13.3010,4.60052,2470.614,2022-10-19T08:36:40Z
2022-10-19T06:37:48Z,42.805,6.029,13.3013,4.60050,2470.6,2022-10-19T08:39:43Z
2022-10-19T06:40:51Z,42.805,6.029,13.3008,4.60049,2470.614,2022-10-19T08:42:46Z
2022-10-19T06:43:54Z,42.805,6.029,13.3008,4.60049,2470.6,2022-10-19T08:45:49Z
2022-10-19T06:46:57Z,42.805,6.029,13.3004,4.60049,2470.637,2022-10-19T08:48:53Z
2022-10-19T06:50:00Z,42.805,6.029,13.3008,4.60049,2470.624,2022-10-19T08:51:56Z
2022-10-19T06:53:03Z,42.805,6.029,13.3008,4.60055,2470.6,2022-10-19T08:54:59Z
2022-10-19T06:56:06Z,42.805,6.029,13.3008,4.60052,2470.637,2022-10-19T08:58:02Z
2022-10-19T06:59:09Z,42.805,6.029,13.3009,4.60052,2470.577,2022-10-19T09:01:05Z
2022-10-19T07:02:12Z,42.805,6.029,13.3011,4.60051,2470.624,2022-10-19T09:04:08Z
2022-10-19T07:05:15Z,42.805,6.029,13.3013,4.60049,2470.624,2022-10-19T09:07:11Z
2022-10-19T07:08:19Z,42.805,6.029,13.3015,4.60050,2470.6,2022-10-19T09:10:14Z
2022-10-19T07:11:22Z,42.805,6.029,13.3011,4.60051,2470.614,2022-10-19T09:13:17Z
2022-10-19T07:14:25Z,42.805,6.029,13.3009,4.60055,2470.614,2022-10-19T09:16:20Z
2022-10-19T07:17:28Z,42.805,6.029,13.3013,4.60059,2470.6,2022-10-19T09:19:23Z
2022-10-19T07:20:31Z,42.805,6.029,13.3011,4.60053,2470.6,2022-10-19T09:22:26Z
2022-10-19T07:23:34Z,42.805,6.029,13.3013,4.60055,2470.591,2022-10-19T09:25:29Z
2022-10-19T07:26:37Z,42.805,6.029,13.3006,4.60053,2470.6,2022-10-19T09:28:33Z
2022-10-19T07:29:40Z,42.805,6.029,13.3009,4.60054,2470.614,2022-10-19T09:31:36Z
2022-10-19T07:32:43Z,42.805,6.029,13.3011,4.60052,2470.614,2022-10-19T09:34:39Z
2022-10-19T07:35:46Z,42.805,6.029,13.3012,4.60053,2470.6,2022-10-19T09:37:42Z
2022-10-19T07:38:49Z,42.805,6.029,13.3010,4.60049,2470.614,2022-10-19T09:40:45Z
2022-10-19T07:41:52Z,42.805,6.029,13.3009,4.60049,2470.577,2022-10-19T09:43:48Z
2022-10-19T07:44:55Z,42.805,6.029,13.3009,4.60049,2470.591,2022-10-19T09:46:51Z
2022-10-19T07:47:59Z,42.805,6.029,13.3007,4.60049,2470.591,2022-10-19T09:49:54Z
2022-10-19T07:51:02Z,42.805,6.029,13.3014,4.60056,2470.6,2022-10-19T09:52:57Z
2022-10-19T07:54:05Z,42.805,6.029,13.3011,4.60052,2470.637,2022-10-19T09:56:00Z
2022-10-19T07:57:08Z,42.805,6.029,13.3009,4.60053,2470.577,2022-10-19T09:59:03Z
2022-10-19T08:00:11Z,42.805,6.029,13.3011,4.60054,2470.6,2022-10-19T10:02:06Z
2022-10-19T08:03:14Z,42.805,6.029,13.3009,4.60053,2470.553,2022-10-19T10:05:09Z
2022-10-19T08:06:17Z,42.805,6.029,13.3013,4.60054,2470.591,2022-10-19T10:08:13Z
2022-10-19T08:09:20Z,42.805,6.029,13.3011,4.60049,2470.591,2022-10-19T10:11:16Z
2022-10-19T08:12:23Z,42.805,6.029,13.3007,4.60055,2470.614,2022-10-19T10:14:19Z
2022-10-19T08:15:26Z,42.805,6.029,13.3008,4.60052,2470.624,2022-10-19T10:17:22Z
2022-10-19T08:18:29Z,42.805,6.029,13.3008,4.60052,2470.6,2022-10-19T10:20:25Z
2022-10-19T08:21:32Z,42.805,6.029,13.3009,4.60057,2470.624,2022-10-19T10:23:28Z
2022-10-19T08:24:35Z,42.805,6.029,13.3007,4.60054,2470.614,2022-10-19T10:26:31Z
2022-10-19T08:27:39Z,42.805,6.029,13.3003,4.60052,2470.577,2022-10-19T10:29:34Z
2022-10-19T08:30:42Z,42.805,6.029,13.3007,4.60051,2470.6,2022-10-19T10:32:37Z
2022-10-19T08:33:45Z,42.805,6.029,13.3007,4.60051,2470.624,2022-10-19T10:35:40Z
2022-10-19T08:36:48Z,42.805,6.029,13.3010,4.60050,2470.6,2022-10-19T10:38:43Z
2022-10-19T08:39:51Z,42.805,6.029,13.3006,4.60049,2470.624,2022-10-19T10:41:46Z
2022-10-19T08:42:54Z,42.805,6.029,13.3007,4.60050,2470.577,2022-10-19T10:44:50Z
2022-10-19T08:45:57Z,42.805,6.029,13.3009,4.60052,2470.6,2022-10-19T10:47:53Z
2022-10-19T08:49:00Z,42.805,6.029,13.3009,4.60053,2470.6,2022-10-19T10:50:56Z
2022-10-19T08:52:03Z,42.805,6.029,13.3009,4.60052,2470.577,2022-10-19T10:53:59Z
2022-10-19T08:55:06Z,42.805,6.029,13.3010,4.60051,2470.591,2022-10-19T10:57:02Z
2022-10-19T08:58:09Z,42.805,6.029,13.3009,4.60051,2470.614,2022-10-19T11:00:05Z
2022-10-19T09:01:13Z,42.805,6.029,13.3012,4.60051,2470.6,2022-10-19T11:03:08Z
2022-10-19T09:04:16Z,42.805,6.029,13.3005,4.60052,2470.614,2022-10-19T11:06:11Z
2022-10-19T09:07:19Z,42.805,6.029,13.3011,4.60050,2470.6,2022-10-19T11:09:14Z
2022-10-19T09:10:22Z,42.805,6.029,13.3011,4.60052,2470.624,2022-10-19T11:12:17Z
2022-10-19T09:13:25Z,42.805,6.029,13.3013,4.60052,2470.6,2022-10-19T11:15:20Z
2022-10-19T09:16:28Z,42.805,6.029,13.3008,4.60052,2470.624,2022-10-19T11:18:23Z
2022-10-19T09:19:31Z,42.805,6.029,13.3010,4.60051,2470.614,2022-10-19T11:21:27Z
2022-10-19T09:22:34Z,42.805,6.029,13.3010,4.60051,2470.6,2022-10-19T11:24:30Z
2022-10-19T09:25:37Z,42.805,6.029,13.3011,4.60053,2470.624,2022-10-19T11:27:33Z
2022-10-19T09:28:40Z,42.805,6.029,13.3011,4.60051,2470.614,2022-10-19T11:30:36Z
2022-10-19T09:31:43Z,42.805,6.029,13.3011,4.60052,2470.6,2022-10-19T11:33:39Z
2022-10-19T09:34:46Z,42.805,6.029,13.3013,4.60052,2470.591,2022-10-19T11:36:42Z
2022-10-19T09:37:49Z,42.805,6.029,13.3014,4.60052,2470.6,2022-10-19T11:39:45Z
2022-10-19T09:40:53Z,42.805,6.029,13.3009,4.60054,2470.614,2022-10-19T11:42:48Z
2022-10-19T09:43:56Z,42.805,6.029,13.3010,4.60052,2470.6,2022-10-19T11:45:51Z
2022-10-19T09:46:59Z,42.805,6.029,13.3009,4.60055,2470.577,2022-10-19T11:48:54Z
2022-10-19T09:50:02Z,42.805,6.029,13.3012,4.60058,2470.624,2022-10-19T11:51:57Z
2022-10-19T09:53:05Z,42.805,6.029,13.3009,4.60056,2470.637,2022-10-19T11:55:00Z
2022-10-19T09:56:08Z,42.805,6.029,13.3010,4.60052,2470.624,2022-10-19T11:58:04Z
2022-10-19T09:59:11Z,42.805,6.029,13.3009,4.60052,2470.614,2022-10-19T12:01:07Z
2022-10-19T10:02:14Z,42.805,6.029,13.3011,4.60051,2470.637,2022-10-19T12:04:10Z
2022-10-19T10:05:17Z,42.805,6.029,13.3010,4.60053,2470.637,2022-10-19T12:07:13Z
2022-10-19T10:08:20Z,42.805,6.029,13.3009,4.60053,2470.6,2022-10-19T12:10:16Z
2022-10-19T10:11:23Z,42.805,6.029,13.3010,4.60050,2470.624,2022-10-19T12:13:19Z
2022-10-19T10:14:27Z,42.805,6.029,13.3011,4.60054,2470.624,2022-10-19T12:16:22Z
2022-10-19T10:17:30Z,42.805,6.029,13.3011,4.60052,2470.646,2022-10-19T12:19:25Z
2022-10-19T10:20:33Z,42.805,6.029,13.3009,4.60051,2470.624,2022-10-19T12:22:28Z
2022-10-19T10:23:36Z,42.805,6.029,13.3009,4.60053,2470.646,2022-10-19T12:25:31Z
2022-10-19T10:26:39Z,42.805,6.029,13.3009,4.60055,2470.646,2022-10-19T12:28:34Z
2022-10-19T10:29:42Z,42.805,6.029,13.3010,4.60052,2470.624,2022-10-19T12:31:37Z
2022-10-19T10:32:45Z,42.805,6.029,13.3014,4.60051,2470.637,2022-10-19T12:34:41Z
2022-10-19T10:35:48Z,42.805,6.029,13.3014,4.60050,2470.661,2022-10-19T12:37:44Z
2022-10-19T10:38:51Z,42.805,6.029,13.3014,4.60054,2470.624,2022-10-19T12:40:47Z
2022-10-19T10:41:54Z,42.805,6.029,13.3005,4.60052,2470.646,2022-10-19T12:43:50Z
2022-10-19T10:44:57Z,42.805,6.029,13.3014,4.60051,2470.614,2022-10-19T12:46:53Z
2022-10-19T10:48:00Z,42.805,6.029,13.3007,4.60055,2470.684,2022-10-19T12:49:56Z
2022-10-19T10:51:04Z,42.805,6.029,13.3011,4.60052,2470.67,2022-10-19T12:52:59Z
2022-10-19T10:54:07Z,42.805,6.029,13.3011,4.60053,2470.67,2022-10-19T12:56:02Z
2022-10-19T10:57:10Z,42.805,6.029,13.3011,4.60052,2470.624,2022-10-19T12:59:05Z
2022-10-19T11:00:13Z,42.805,6.029,13.3007,4.60054,2470.646,2022-10-19T13:02:08Z
2022-10-19T11:03:16Z,42.805,6.029,13.3014,4.60051,2470.624,2022-10-19T13:05:11Z
2022-10-19T11:06:19Z,42.805,6.029,13.3009,4.60052,2470.646,2022-10-19T13:08:15Z
2022-10-19T11:09:22Z,42.805,6.029,13.3011,4.60050,2470.646,2022-10-19T13:11:18Z
2022-10-19T11:12:25Z,42.805,6.029,13.3011,4.60051,2470.614,2022-10-19T13:14:21Z
2022-10-19T11:15:28Z,42.805,6.029,13.3010,4.60053,2470.624,2022-10-19T13:17:24Z
2022-10-19T11:18:31Z,42.805,6.029,13.3009,4.60051,2470.6,2022-10-19T13:20:27Z
2022-10-19T11:21:34Z,42.805,6.029,13.3013,4.60052,2470.637,2022-10-19T13:23:30Z
2022-10-19T11:24:37Z,42.805,6.029,13.3011,4.60052,2470.637,2022-10-19T13:26:33Z
2022-10-19T11:27:41Z,42.805,6.029,13.3012,4.60052,2470.624,2022-10-19T13:29:36Z
2022-10-19T11:30:44Z,42.805,6.029,13.3011,4.60051,2470.624,2022-10-19T13:32:39Z
2022-10-19T11:33:47Z,42.805,6.029,13.3011,4.60051,2470.661,2022-10-19T13:35:42Z
2022-10-19T11:36:50Z,42.805,6.029,13.3008,4.60050,2470.637,2022-10-19T13:38:45Z
2022-10-19T11:39:53Z,42.805,6.029,13.3011,4.60050,2470.637,2022-10-19T13:41:48Z
2022-10-19T11:42:56Z,42.805,6.029,13.3011,4.60049,2470.67,2022-10-19T13:44:52Z
2022-10-19T11:45:59Z,42.805,6.029,13.3012,4.60050,2470.684,2022-10-19T13:47:55Z
2022-10-19T11:49:02Z,42.805,6.029,13.3009,4.60049,2470.646,2022-10-19T13:50:58Z
2022-10-19T11:52:05Z,42.805,6.029,13.3009,4.60051,2470.67,2022-10-19T13:54:01Z
2022-10-19T11:55:08Z,42.805,6.029,13.3012,4.60049,2470.646,2022-10-19T13:57:04Z
2022-10-19T11:58:11Z,42.805,6.029,13.3011,4.60050,2470.6,2022-10-19T14:00:07Z
2022-10-19T12:01:14Z,42.805,6.029,13.3011,4.60050,2470.646,2022-10-19T14:03:10Z
2022-10-19T12:04:18Z,42.805,6.029,13.3012,4.60050,2470.67,2022-10-19T14:06:13Z
2022-10-19T12:07:21Z,42.805,6.029,13.3009,4.60054,2470.646,2022-10-19T14:09:16Z
2022-10-19T12:10:24Z,42.805,6.029,13.3013,4.60050,2470.684,2022-10-19T14:12:19Z
2022-10-19T12:13:27Z,42.805,6.029,13.3010,4.60051,2470.646,2022-10-19T14:15:22Z
2022-10-19T12:16:30Z,42.805,6.029,13.3008,4.60052,2470.646,2022-10-19T14:18:25Z
2022-10-19T12:19:33Z,42.805,6.029,13.3008,4.60049,2470.646,2022-10-19T14:21:29Z
2022-10-19T12:22:36Z,42.805,6.029,13.3010,4.60050,2470.661,2022-10-19T14:24:32Z
2022-10-19T12:25:39Z,42.805,6.029,13.3006,4.60053,2470.67,2022-10-19T14:27:35Z
2022-10-19T12:28:42Z,42.805,6.029,13.3006,4.60049,2470.624,2022-10-19T14:30:38Z
2022-10-19T12:31:45Z,42.805,6.029,13.3009,4.60049,2470.67,2022-10-19T14:33:41Z
2022-10-19T12:34:48Z,42.805,6.029,13.3011,4.60050,2470.67,2022-10-19T14:36:44Z
2022-10-19T12:37:51Z,42.805,6.029,13.3009,4.60049,2470.67,2022-10-19T14:39:47Z
2022-10-19T12:40:55Z,42.805,6.029,13.3006,4.60049,2470.67,2022-10-19T14:42:50Z
2022-10-19T12:43:58Z,42.805,6.029,13.3009,4.60049,2470.693,2022-10-19T14:45:53Z
2022-10-19T12:47:01Z,42.805,6.029,13.3009,4.60050,2470.67,2022-10-19T14:48:56Z
2022-10-19T12:50:04Z,42.805,6.029,13.3007,4.60049,2470.661,2022-10-19T14:51:59Z
2022-10-19T12:53:07Z,42.805,6.029,13.3008,4.60050,2470.661,2022-10-19T14:55:02Z
2022-10-19T12:56:10Z,42.805,6.029,13.3009,4.60049,2470.67,2022-10-19T14:58:06Z
2022-10-19T12:59:13Z,42.805,6.029,13.3006,4.60050,2470.67,2022-10-19T15:01:09Z
2022-10-19T13:02:16Z,42.805,6.029,13.3010,4.60050,2470.67,2022-10-19T15:04:12Z
2022-10-19T13:05:19Z,42.805,6.029,13.3007,4.60049,2470.67,2022-10-19T15:07:15Z
2022-10-19T13:08:22Z,42.805,6.029,13.3006,4.60051,2470.684,2022-10-19T15:10:18Z
2022-10-19T13:11:25Z,42.805,6.029,13.3009,4.60051,2470.646,2022-10-19T15:13:21Z
2022-10-19T13:14:28Z,42.805,6.029,13.3009,4.60049,2470.67,2022-10-19T15:16:24Z
2022-10-19T13:17:31Z,42.805,6.029,13.3004,4.60049,2470.693,2022-10-19T15:19:27Z
2022-10-19T13:20:35Z,42.805,6.029,13.3007,4.60049,2470.67,2022-10-19T15:22:30Z
2022-10-19T13:23:38Z,42.805,6.029,13.3011,4.60052,2470.717,2022-10-19T15:25:33Z
2022-10-19T13:26:41Z,42.805,6.029,13.3007,4.60049,2470.679,2022-10-19T15:28:36Z
2022-10-19T13:29:44Z,42.805,6.029,13.3012,4.60049,2470.684,2022-10-19T15:31:39Z
2022-10-19T13:32:47Z,42.805,6.029,13.3009,4.60049,2470.67,2022-10-19T15:34:43Z
2022-10-19T13:35:50Z,42.805,6.029,13.3007,4.60049,2470.67,2022-10-19T15:37:46Z
2022-10-19T13:38:53Z,42.805,6.029,13.3005,4.60049,2470.67,2022-10-19T15:40:49Z
2022-10-19T13:41:56Z,42.805,6.029,13.3006,4.60049,2470.73,2022-10-19T15:43:52Z
2022-10-19T13:44:59Z,42.805,6.029,13.3009,4.60055,2470.67,2022-10-19T15:46:55Z
2022-10-19T13:48:02Z,42.805,6.029,13.3010,4.60049,2470.717,2022-10-19T15:49:58Z
2022-10-19T13:51:05Z,42.805,6.029,13.3009,4.60050,2470.707,2022-10-19T15:53:01Z
2022-10-19T13:54:09Z,42.805,6.029,13.3011,4.60049,2470.693,2022-10-19T15:56:04Z
2022-10-19T13:57:12Z,42.805,6.029,13.3009,4.60052,2470.693,2022-10-19T15:59:07Z
2022-10-19T14:00:15Z,42.805,6.029,13.3009,4.60049,2470.67,2022-10-19T16:02:10Z
2022-10-19T14:03:18Z,42.805,6.029,13.3010,4.60052,2470.73,2022-10-19T16:05:13Z
2022-10-19T14:06:21Z,42.805,6.029,13.3011,4.60050,2470.717,2022-10-19T16:08:16Z
2022-10-19T14:09:24Z,42.805,6.029,13.3008,4.60049,2470.707,2022-10-19T16:11:19Z
2022-10-19T14:12:27Z,42.805,6.029,13.3007,4.60051,2470.693,2022-10-19T16:14:23Z
2022-10-19T14:15:30Z,42.805,6.029,13.3008,4.60049,2470.717,2022-10-19T16:17:26Z
2022-10-19T14:18:33Z,42.805,6.029,13.3006,4.60059,2470.717,2022-10-19T16:20:29Z
2022-10-19T14:21:36Z,42.805,6.029,13.3009,4.60050,2470.67,2022-10-19T16:23:32Z
2022-10-19T14:24:39Z,42.805,6.029,13.3011,4.60050,2470.693,2022-10-19T16:26:35Z
2022-10-19T14:27:42Z,42.805,6.029,13.3009,4.60055,2470.717,2022-10-19T16:29:38Z
2022-10-19T14:30:46Z,42.805,6.029,13.3009,4.60049,2470.717,2022-10-19T16:32:41Z
2022-10-19T14:33:49Z,42.805,6.029,13.3009,4.60051,2470.754,2022-10-19T16:35:44Z
2022-10-19T14:36:52Z,42.805,6.029,13.3012,4.60051,2470.717,2022-10-19T16:38:47Z
2022-10-19T14:39:55Z,42.805,6.029,13.3009,4.60050,2470.67,2022-10-19T16:41:50Z
2022-10-19T14:42:58Z,42.805,6.029,13.3007,4.60051,2470.754,2022-10-19T16:44:53Z
2022-10-19T14:46:01Z,42.805,6.029,13.3006,4.60052,2470.707,2022-10-19T16:47:57Z
2022-10-19T14:49:04Z,42.805,6.029,13.3007,4.60051,2470.717,2022-10-19T16:51:00Z
2022-10-19T14:52:07Z,42.805,6.029,13.3012,4.60051,2470.693,2022-10-19T16:54:03Z
2022-10-19T14:55:10Z,42.805,6.029,13.3006,4.60051,2470.693,2022-10-19T16:57:06Z
2022-10-19T14:58:13Z,42.805,6.029,13.3009,4.60052,2470.73,2022-10-19T17:00:09Z
2022-10-19T15:01:16Z,42.805,6.029,13.3008,4.60051,2470.73,2022-10-19T17:03:12Z